Regional Weather Roundup
Issued by NWS Cleveland, OH

Home | Current Version | Previous Version | Text Only | Print | Product List | Glossary Off
Versions: 1 2 3 4 5 6 7 8 9 10 11 12 13 14 15 16 17 18 19 20 21 22 23 24 25 26 27 28 29 30 31 32 33 34 35 36 37 38 39 40 41 42 43 44 45 46 47 48 49 50

546
ASUS41 KCLE 222102
RWRCLE
OHIO REGIONAL WEATHER ROUNDUP
NATIONAL WEATHER SERVICE CLEVELAND, OH
500 PM EDT MON MAY 22 2017

NOTE: "FAIR" INDICATES FEW OR NO CLOUDS BELOW 12,000 FEET WITH NO
SIGNIFICANT WEATHER AND/OR OBSTRUCTIONS TO VISIBILITY.

OHZ001>008-015>018-024>027-034-035-043-044-222200-
   NORTHWEST OHIO

CITY           SKY/WX    TMP DP  RH WIND       PRES   REMARKS
DEFIANCE       MOSUNNY   68  44  42 W9        30.00F
FINDLAY        MOSUNNY   71  44  37 W13       30.01F
TOLEDO EXPRESS SUNNY     69  45  41 SW14G22   29.99F
TOLEDO EXEC    SUNNY     70  46  42 W9        30.00F
LIMA           MOSUNNY   68  49  50 SW12      30.03F
$$

OHZ009>014-019>023-028>033-038-089-222200-
   NORTHEAST OHIO

CITY           SKY/WX    TMP DP  RH WIND       PRES   REMARKS
CLE-HOPKINS    PTSUNNY   70  45  40 SW9G20    30.03S
CLE-LAKEFRONT  MOSUNNY   63  49  60 W9        30.01S
CUY CO. ARPT   MOSUNNY   68  45  42 NW10      30.03S
LORAIN-ELYRIA  CLOUDY    66  43  43 SW14      30.02F
ASHTABULA      CLOUDY    64  42  44 W14       30.02S
AKRON-CANTON   CLOUDY    64  45  49 NW8       30.04F
WOOSTER        CLOUDY    64  45  49 W13       30.05F
MANSFIELD      MOSUNNY   66  46  48 W9        30.05S
YOUNGSTOWN     PTSUNNY   63  43  48 SW12      30.03S
$$

OHZ042-051>053-060>062-070>072-077>081-222200-
  SOUTHWEST OHIO

CITY           SKY/WX    TMP DP  RH WIND       PRES   REMARKS
CINC-COVINGTON PTSUNNY   66  43  43 SE5       30.06F
CINC-LUNKEN    CLOUDY    68  48  48 CALM      30.06F
HAMILTON       PTSUNNY   68  47  46 CALM      30.06F
DAYTON         CLOUDY    68  44  42 CALM      30.06F
WRIGHT-PAT AFB CLOUDY    70  43  38 W8        30.04F
DAYTON GENERAL MOSUNNY   68  43  40 NW5       30.05F
WILMINGTON     MOSUNNY   66  45  46 CALM      30.06F
$$

OHZ036-037-039>041-045>050-054>059-063>069-073>076-082>088-222200-
  CENTRAL AND SOUTHEAST OHIO

CITY           SKY/WX    TMP DP  RH WIND       PRES   REMARKS
COLUMBUS       CLOUDY    66  46  48 W9        30.05F
OSU AIRPORT    CLOUDY    65  46  50 SW7       30.05F
BOLTON FIELD   SUNNY     64  46  52 CALM      30.06F
RICKENBACK AFB CLOUDY    65  44  47 W7        30.05F
NEWARK         CLOUDY    65  43  44 N6        30.05F
MARION         CLOUDY    67  44  43 W7        30.04F
LANCASTER      CLOUDY    70  48  45 NW6       30.05F
ZANESVILLE     CLOUDY    67  45  45 NW8       30.04F
NEW PHILLY     NOT AVBL
$$




USA.gov is the U.S. government's official web portal to all federal, state and local government web resources and services.